TimeCDT,TemperatureF,Dew PointF,Humidity,Sea Level PressureIn,VisibilityMPH,Wind Direction,Wind SpeedMPH,Gust SpeedMPH,PrecipitationIn,Events,Conditions,WindDirDegrees,DateUTC
12:53 AM,68.0,64.9,90,30.03,10.0,Calm,Calm,-,N/A,,Clear,0,2012-11-03 05:53:00
1:53 AM,68.0,64.9,90,30.03,10.0,Calm,Calm,-,N/A,,Clear,0,2012-11-03 06:53:00
2:53 AM,68.0,64.9,90,30.03,10.0,Calm,Calm,-,N/A,,Clear,0,2012-11-03 07:53:00
3:53 AM,66.9,63.0,87,30.03,10.0,Calm,Calm,-,N/A,,Clear,0,2012-11-03 08:53:00
4:15 AM,66.2,62.6,88,30.03,1.5,Calm,Calm,-,N/A,,Clear,0,2012-11-03 09:15:00
4:24 AM,64.4,62.6,94,30.03,0.5,Calm,Calm,-,N/A,Fog,Fog,0,2012-11-03 09:24:00
4:34 AM,64.4,62.6,94,30.03,2.0,Calm,Calm,-,N/A,,Scattered Clouds,0,2012-11-03 09:34:00
4:41 AM,64.4,62.6,94,30.03,9.0,Calm,Calm,-,N/A,,Mostly Cloudy,0,2012-11-03 09:41:00
4:53 AM,66.0,63.0,90,30.04,10.0,Calm,Calm,-,N/A,,Scattered Clouds,0,2012-11-03 09:53:00
5:49 AM,66.2,62.6,88,30.05,1.8,Calm,Calm,-,N/A,,Partly Cloudy,0,2012-11-03 10:49:00
5:53 AM,64.9,63.0,93,30.05,1.5,Calm,Calm,-,N/A,,Partly Cloudy,0,2012-11-03 10:53:00
6:14 AM,64.4,62.6,94,30.05,0.8,Calm,Calm,-,N/A,,Clear,0,2012-11-03 11:14:00
6:25 AM,64.4,62.6,94,30.06,2.0,Calm,Calm,-,N/A,,Clear,0,2012-11-03 11:25:00
6:32 AM,64.4,62.6,94,30.06,8.0,Calm,Calm,-,N/A,,Clear,0,2012-11-03 11:32:00
6:53 AM,66.0,63.0,90,30.06,10.0,Calm,Calm,-,N/A,,Clear,0,2012-11-03 11:53:00
7:53 AM,66.9,64.0,90,30.07,10.0,SE,3.5,-,N/A,,Clear,130,2012-11-03 12:53:00
8:53 AM,71.1,66.9,87,30.09,10.0,Calm,Calm,-,N/A,,Clear,0,2012-11-03 13:53:00
9:53 AM,77.0,66.0,69,30.11,10.0,SSE,6.9,-,N/A,,Clear,160,2012-11-03 14:53:00
10:53 AM,80.1,64.0,58,30.11,10.0,Variable,6.9,-,N/A,,Partly Cloudy,0,2012-11-03 15:53:00
11:53 AM,81.0,62.1,52,30.10,10.0,South,6.9,-,N/A,,Mostly Cloudy,170,2012-11-03 16:53:00
12:53 PM,82.9,61.0,47,30.07,10.0,SE,10.4,-,N/A,,Mostly Cloudy,140,2012-11-03 17:53:00
1:45 PM,80.6,60.8,51,30.05,10.0,SSE,9.2,-,N/A,Thunderstorm,Partly Cloudy,150,2012-11-03 18:45:00
1:53 PM,80.1,61.0,52,30.05,10.0,SSE,9.2,-,N/A,Thunderstorm,Clear,160,2012-11-03 18:53:00
2:00 PM,80.6,60.8,51,30.05,10.0,SSE,10.4,-,N/A,,Clear,160,2012-11-03 19:00:00
2:12 PM,80.6,60.8,51,30.04,10.0,SSE,8.1,-,N/A,Thunderstorm,Clear,160,2012-11-03 19:12:00
2:38 PM,78.8,62.6,57,30.05,10.0,South,6.9,-,N/A,,Mostly Cloudy,180,2012-11-03 19:38:00
2:53 PM,75.0,62.1,64,30.04,10.0,WNW,6.9,-,N/A,,Mostly Cloudy,300,2012-11-03 19:53:00
3:53 PM,77.0,64.0,64,30.04,10.0,WNW,3.5,-,N/A,,Clear,290,2012-11-03 20:53:00
4:53 PM,73.0,62.1,68,30.04,10.0,West,6.9,-,N/A,,Partly Cloudy,280,2012-11-03 21:53:00
5:53 PM,73.9,62.1,66,30.06,10.0,Calm,Calm,-,N/A,,Clear,0,2012-11-03 22:53:00
6:53 PM,72.0,62.1,71,30.06,10.0,NE,4.6,-,N/A,,Clear,40,2012-11-03 23:53:00
7:42 PM,71.6,62.6,73,30.06,10.0,NNE,4.6,-,N/A,,Overcast,20,2012-11-04 00:42:00
7:53 PM,72.0,63.0,73,30.07,10.0,NNE,3.5,-,N/A,,Overcast,30,2012-11-04 00:53:00
8:03 PM,71.6,62.6,73,30.07,10.0,NNE,3.5,-,N/A,,Mostly Cloudy,30,2012-11-04 01:03:00
8:53 PM,70.0,62.1,76,30.09,10.0,ENE,5.8,-,N/A,,Clear,60,2012-11-04 01:53:00
9:53 PM,69.1,62.1,78,30.09,10.0,SSW,3.5,-,N/A,,Clear,200,2012-11-04 02:53:00
10:53 PM,69.1,62.1,78,30.09,10.0,SE,3.5,-,N/A,,Clear,130,2012-11-04 03:53:00
11:53 PM,66.0,61.0,84,30.07,10.0,Calm,Calm,-,N/A,,Clear,0,2012-11-04 04:53:00